ATLAS D R/B, 2328

Orbit data source: Space-Track

ATLAS D R/B, 2328 is space debris in LEO originally from a launch on Thu, 14 Jul 1966 UTC launched from the Air Force Western Test Range (AFWTR). Debris objects in space refer to the collection of defunct objects orbiting the Earth. Examples of debris include non-operational satellites, rocket bodies, and fragments generated from explosions, collisions, or faulty payload assembly.

Loading next visibility...
Identifier
2328, 1966-063C
Orbit
LEO
Country
Flag of USUS
Related business
Manufacturer
ABL
Mission
Spacecraft
Bus & Motor
ALTAIR, Unknown motor
Mass
~125 kg wet, ~125 kg dry
Launch date (UTC)
1966-07-14 (60 years ago)
Launch vehicle
Unknown
Launch site
Air Force Western Test Range (AFWTR)
Object type
Payload
Rocket body
Debris
Shape & HBR
Unknown
Radar Cross Section
Medium (>0.1 m² and <1 m²)

Expand to show TLE details & history
Last TLE update: 6 hours ago

TLE from 6 hours ago
0 ATLAS D R/B
1  2328U 66063C   26035.78847980  .00000264  00000-0  19349-4 0  9995
2  2328 144.2312 113.2954 0010000 343.0268 133.3665 13.69973497982088
Epoch: 2026-02-04T18:55Z
TLE epoch observation values (Epoch: 2026-02-04T18:55:24.654Z)
Latitude
31.6734°
Longitude
-67.07776°
Altitude
1,004.932 km
Speed
7.351 km/s
True Right ascension
23h 26m 53s
True Declination
31° 31' 30"
Sunlit
Object was in daylight at epoch
Visualization orbit readout
Latitude
Unknown
Longitude
Unknown
Altitude
Unknown
Speed
Unknown
Apparent Right ascension
Unknown
Apparent Declination
Unknown
Sunlit
N/A
Visualization observer readout
Local Sidereal Time
03:10:24
Azimuth
Unknown
Elevation
Unknown
Doppler factor
Unknown
Orbital elements
Apogee altitude
1,009.962 km
Perigee altitude
995.201 km
Semi-major axis
7,380.719 km
Eccentricity
0.001
Inclination
144.2312°
RAAN
113.2954°
Arg. of periapsis
343.0268°
True anomaly
133.44973°
Mean anomaly
133.3665°
Eccentric anomaly
133.40812°
Mean motion
3.42291 °/min
Orbital period
105.17 mins
BSTAR
0.000019349
Loading maneuver chart data...
Computing Atmospheric mass density...
Loading historical data...
Loading historical data...
Loading historical data...
Loading historical data...
Loading historical data...
Loading historical data...
Loading historical data...

Documentation

Showing up to 5 results
|